HULIANGWANG DIGUI-09

导读

HULIANWANG DIGUI-09是中国于北京时间2024年12月16日08:00发射的低轨互联网卫星,隶属于中国低轨卫星互联网星座建设任务,旨在依托低轨卫星网络,填补地面通信覆盖盲区,为全球范围内提供普惠、稳定的互联网接入服务,支撑远洋航行、偏远区域通信与应急联网等场景需求。该卫星的成功发射,进一步完善了中国低轨互联网星座的组网布局,推动我国天地一体化信息网络建设迈出新步伐。

基本信息
目录编号:
62331
目录名称:
HULIANWANG DIGUI-09
国际标识:
2024-240J
轨道中心:
EARTH
卫星名称:
HULIANWANG DIGUI-09
卫星全名:
HULIANGWANG DIGUI-09
卫星状态:
在轨 (已飞行588 天)
发射日期:
2024-12-16 UTC
国别 :
中国 (CN)
星等 :
--
轨道信息
数据来源 国际轨道数据 AOE轨道数据
星历时间 2026-07-27T22:10:09+0800
8小时前
查看轨道信息
2026-07-25T05:00:00+0800
3天前
查看轨道信息
半长轴 7546.058km 7546.044km
偏心率 0.0002062 0.000209
轨道倾角 86.503° 86.504°
近地点辐角 101.295° 83.390°
升交点赤经 329.635° 330.547°
平近点角 258.842° 297.524°
近地点 1166.365km 1166.329km
远地点 1169.477km 1169.485km
周期 108.728分钟 108.727分钟
每日圈数 13.244104 13.244141
详细信息
使用方式:
暂无
2D轨道图
3D轨道图
轨道高度分析图
轨道倾角分析图
轨道综合分析图
查看轨道综合分析图